This is the latest recevied weather packets stored in our database for station/object AE5PL. If no packets are shown the sender has not sent any weather packets the latest 1 day(s).
| Time | Temp. | Humidity | Pressure | Rain* | Wind** | Luminosity | Snow |
|---|---|---|---|---|---|---|---|
| 1778037750 | 17.78° C | 80% | 1008.1 hPa | - | 3.58 m/s, 337° | - | - |
| 1778037450 | 17.78° C | 80% | 1007.8 hPa | - | 3.58 m/s, 337° | - | - |
| 1778037150 | 18.33° C | 80% | 1007.8 hPa | - | 2.68 m/s, 337° | - | - |
| 1778036850 | 18.33° C | 80% | 1007.7 hPa | - | 3.13 m/s, 337° | - | - |
| 1778036550 | 18.33° C | 79% | 1007.7 hPa | - | 3.13 m/s, 337° | - | - |
| 1778036250 | 18.89° C | 79% | 1007.6 hPa | - | 2.24 m/s, 360° | - | - |
| 1778035950 | 18.89° C | 79% | 1007.4 hPa | - | 2.24 m/s, 337° | - | - |
| 1778035650 | 19.44° C | 79% | 1007.3 hPa | - | 3.13 m/s, 22° | - | - |
| 1778035350 | 19.44° C | 79% | 1007.1 hPa | - | 3.13 m/s, 337° | - | - |
| 1778035050 | 19.44° C | 78% | 1006.7 hPa | - | 2.68 m/s, 315° | - | - |
| 1778034750 | 20° C | 78% | 1006.5 hPa | - | 2.68 m/s, 360° | - | - |
| 1778034450 | 20° C | 78% | 1006.5 hPa | - | 3.13 m/s, 337° | - | - |
| 1778034150 | 20° C | 78% | 1006.4 hPa | - | 3.58 m/s, 360° | - | - |
| 1778033850 | 20° C | 78% | 1006.2 hPa | - | 2.68 m/s, 337° | - | - |
| 1778033550 | 20° C | 78% | 1006.4 hPa | - | 3.13 m/s, 360° | - | - |
| 1778033250 | 20.56° C | 78% | 1006.1 hPa | - | 2.68 m/s, 337° | - | - |
| 1778032950 | 20.56° C | 78% | 1006.2 hPa | - | 2.24 m/s, 337° | - | - |
| 1778032650 | 20.56° C | 77% | 1005.8 hPa | - | 1.79 m/s, 337° | - | - |
| 1778032350 | 20.56° C | 77% | 1005.6 hPa | - | 2.24 m/s, 360° | - | - |
| 1778032050 | 20.56° C | 77% | 1005.9 hPa | - | 2.68 m/s, 360° | - | - |
| 1778031750 | 21.11° C | 76% | 1005.7 hPa | - | 3.13 m/s, 360° | - | - |
| 1778031450 | 21.11° C | 76% | 1005.9 hPa | - | 3.13 m/s, 360° | - | - |
| 1778031150 | 21.11° C | 76% | 1005.7 hPa | - | 2.68 m/s, 360° | - | - |
| 1778030850 | 21.67° C | 75% | 1005.4 hPa | - | 3.13 m/s, 360° | - | - |
| 1778030550 | 22.22° C | 75% | 1005.4 hPa | - | 3.13 m/s, 360° | - | - |
* Rain since midnight (hover to see other rain measurements)
** Current wind speed in m/s (hover to see current wind gust speed)